Saskatoon Rcs, Nunavut

7:04 AM CST on February 25, 2017 (GMT -0600)
Montgomery | | Change Station

Elev 1657 ft 52.11 °N, 106.74 °W | Updated 28 seconds ago

Overcast
Overcast
5.3 °F
Feels Like 5 °F
N
0.0
Wind Variable Wind from ENE
Gusts 7.0 mph

Today
High -- | Low -- °F
--% Chance of Precip.
Yesterday
High -- | Low -- °F
Precip. -- in
Pressure 30.11 in
Visibility 15.0 miles
Clouds Overcast 2800 ft
Windchill 5 °F
Dew Point 2 °F
Humidity 87%
Rainfall 0.00 in
Snow Depth Not available.
8:00 AM 6:39 PM
Waning Crescent, 1% visible
METAR CYXE 251300Z 32004KT 15SM OVC028 M14/M17 A2998 RMK SC8 SLP195
Pressure 30.11 in
Visibility 15.0 miles
Clouds Overcast 2800 ft
Windchill 5 °F
Dew Point 2 °F
Humidity 87%
Rainfall 0.00 in
Snow Depth Not available.
8:00 AM 6:39 PM
Waning Crescent, 1% visible
METAR CYXE 251300Z 32004KT 15SM OVC028 M14/M17 A2998 RMK SC8 SLP195

Get Your Daily Forecast Email!

Thanks for signing up!

Be on the lookout for a verification email in your inbox.

You'll start receiving the daily forecast at 8 AM.

×

10-Day Weather Forecast

Almanac

Astronomy

Feb. 25, 2017 Rise Set
Actual Time
Civil Twilight
Nautical Twilight
Astronomical Twilight
Moon
Length of Visible Light
Length of Day
Tomorrow will be .
, % of the Moon is Illuminated

Today's Extremes

Country Highs Country Lows

Community

WunderPhotos

Upload Photos

1,962,540 photos uploaded!

WunderBlog® & News

Nearby

Air Quality

  Air Quality AQ Index Pollutant
Not available.

Snow Depth

Station Depth Elevation

Earthquake Activity

City Distance Mag. Time & Date
Minimum magnitude displayed is 2.5.

Coastal Water Temperatures

Place Temperature

Stations

Nearby Weather Stations

Station Location Temp. Windchill Dew Point Humidity Wind Precip. Elev Updated Type
                   

Watches & Warnings

There are currently no watches in effect.